Regional Weather Roundup
Issued by NWS State College, PA

Home | Current Version | Previous Version | Graphics & Text | Print | Product List | Glossary Off
Versions: 1 2 3 4 5 6 7 8 9 10 11 12 13 14 15 16 17 18 19 20 21 22 23 24 25 26 27 28 29 30 31 32 33 34 35 36 37 38 39 40 41 42 43 44 45 46 47 48 49 50

000
ASUS41 KCTP 210510
RWRCTP

REGIONAL WEATHER ROUNDUP
NATIONAL WEATHER SERVICE STATE COLLEGE PA
100 AM EDT SAT OCT 21 2017

Note: "fair" indicates few or no clouds below 12,000 feet with no
significant weather and/or obstructions to visibility.

* = STATION THAT DOES NOT REPORT PRECIPITATION /E.G. RAIN...SNOW...ETC/
    THUNDER OR FOG.

PAZ002>004-007>009-013>016-020>023-029>032-210600-
WESTERN PENNSYLVANIA

CITY           SKY/WX    TMP DP  RH WIND       PRES   REMARKS
ERIE           CLEAR     54  38  54 S7        30.21S
MEADVILLE      CLEAR     57  35  43 S5        30.25S
FRANKLIN*      CLEAR     48  38  68 SW3       30.27S
NEW CASTLE     FAIR      43  42  97 CALM      30.26S
BEAVER COUNTY  NOT AVBL
BUTLER*        CLEAR     43  40  89 NE5       30.27S
PITTSBURGH INT CLEAR     49  40  71 CALM      30.26S
PITTSBURGH     CLEAR     53  40  61 SE7       30.25F
INDIANA*       CLEAR     43  41  93 E5        30.30F FOG
LATROBE        CLEAR     45  41  87 CALM      30.28S
WASHINGTON CO* CLEAR     45  40  82 CALM      30.29S
$$

PAZ004>006-010>012-017>019-024>028-033>037-041-042-045-046-049>053-210600-
CENTRAL PENNSYLVANIA

CITY           SKY/WX    TMP DP  RH WIND       PRES   REMARKS
BRADFORD       CLEAR     40  36  86 CALM      30.28R
DUBOIS           N/A    N/A N/A N/A MISG      30.28R
CLEARFIELD     CLEAR     46  38  73 CALM      30.29R
JOHNSTOWN      CLEAR     53  35  50 CALM      30.29F
ALTOONA        CLEAR     51  40  65 W3        30.29R
STATE COLLEGE  PTCLDY    48  39  73 S3        30.28R
WILLIAMSPORT   CLEAR     46  41  82 NW3       30.27R
SELINSGROVE    CLEAR     43  42  97 CALM      30.28R
FT INDIANTOWN  CLEAR     43  43  99 CALM      30.27R
CAPITAL CITY   CLEAR     48  42  80 CALM      30.27R
HARRISBURG     CLEAR     48  46  93 CALM      30.26R
YORK           CLEAR     42  42 100 CALM      30.27R
$$

PAZ038>040-043-044-047-048-054-055-060>062-067>071-210600-
EASTERN PENNSYLVANIA

CITY           SKY/WX    TMP DP  RH WIND       PRES   REMARKS
SCRANTON       CLEAR     49  36  61 SE5       30.26R
MOUNT POCONO   CLEAR     42  36  79 W5        30.26R
ALLENTOWN      CLEAR     49  40  71 NW6       30.26R
QUAKERTOWN*    CLEAR     45  41  87 CALM      30.26S
READING        CLEAR     48  44  86 CALM      30.26R
LANCASTER      CLEAR     48  43  82 CALM      30.26S
COATESVILLE    CLEAR     50  39  66 CALM      30.27S
POTTSTOWN      CLEAR     45  42  89 CALM      30.28R
BLUE BELL      CLEAR     43  43 100 CALM      30.28R
DOYLESTOWN     CLEAR     49  39  68 CALM      30.25R
WILLOW GROVE   NOT AVBL
NORTH PHILA    CLEAR     56  40  55 CALM      30.26R
PHILADELPHIA   CLEAR     57  45  64 W5        30.25R
$$




USA.gov is the U.S. government's official web portal to all federal, state and local government web resources and services.